Regional Weather Roundup
Issued by NWS

Home | Current Version | Previous Version | Graphics & Text | Print | Product List | Glossary On
Versions: 1 2 3 4 5 6 7 8 9 10 11 12 13 14 15 16 17 18 19 20 21 22 23 24 25 26 27 28 29 30 31 32 33 34 35 36 37 38 39 40 41 42 43 44 45 46 47 48 49 50
000
ASUS43 KDMX 241106
RWRIA

WEATHER ROUNDUP FOR IOWA
NATIONAL WEATHER SERVICE DES MOINES IA
600 AM CDT FRI MAR 24 2017

NOTE: "FAIR" INDICATES FEW OR NO CLOUDS BELOW 12,000 FEET WITH NO
SIGNIFICANT WEATHER AND/OR OBSTRUCTIONS TO VISIBILITY.

* - THESE STATIONS ARE NOT NWS STATIONS...THUS NOT UNDER NWS
QUALITY CONTROL.  THEY ALSO DO NOT REPORT WEATHER SUCH
AS PRECIPITATION OR FOG.

IAZ001>003-012>014-020>022-031>034-043>046-241200-
   NORTHWEST IOWA

CITY           SKY/WX    TMP DP  RH WIND       PRES   REMARKS
CARROLL *      CLOUDY    46  46 100 CALM      29.75S
CHEROKEE *     RAIN      43  43 100 N9        29.80R
LE MARS *      LGT RAIN  43  43 100 N10       29.83R
ORANGE CITY *  LGT RAIN  39  39 100 N13       29.79R WCI  32
SHELDON *      CLOUDY    39  39 100 N13       29.81R WCI  32
SIOUX CITY     CLOUDY    46  46 100 N14       29.77F
SPENCER        CLOUDY    40  39  97 N13       29.80R WCI  32
STORM LAKE *   CLOUDY    43  41  93 NW12G18   29.78R FOG
$$

IAZ055>058-069>071-079>083-090>094-241200-
   SOUTHWEST IOWA

CITY           SKY/WX    TMP DP  RH WIND       PRES   REMARKS
ATLANTIC *     CLOUDY    57  50  77 N5        29.74S
AUDUBON *      CLOUDY    54  50  87 CALM      29.76S
CLARINDA *     CLOUDY    64  50  59 S10       29.76R
COUNCIL BLFS * MOCLDY    55  55 100 N8        29.74S
CRESTON *      CLOUDY    59  48  67 S12       29.76R
HARLAN  *      CLOUDY    54  54 100 CALM      29.77S
LAMONI         CLOUDY    59  46  62 S9        29.77S
RED OAK *      CLOUDY    64  50  59 S7        29.74F
SHENANDOAH *   CLOUDY    64  50  59 CALM      29.76R
$$

IAZ047>049-059>061-072>074-084-241200-
   CENTRAL IOWA

CITY           SKY/WX    TMP DP  RH WIND       PRES   REMARKS
AMES           PTCLDY    48  43  82 S3        29.76S
ANKENY *       CLOUDY    50  43  76 N5        29.78R
BOONE *        CLOUDY    55  45  67 SW5       29.75R
CHARITON *     CLOUDY    59  46  63 S12       29.78R
DES MOINES     CLOUDY    57  46  66 NW9       29.76R
GRINNELL*      CLOUDY    52  45  78 S10       29.78F
MARSHALLTOWN   CLOUDY    44  40  85 SE5       29.76R
NEWTON *       CLOUDY    50  45  81 S8        29.76S
PELLA *        PTCLDY    57  47  70 S8        29.78S
PERRY *        CLOUDY    50  41  71 CALM      29.75S
$$

IAZ004>006-015-016-023>025-035-036-241200-
   NORTH CENTRAL IOWA

CITY           SKY/WX    TMP DP  RH WIND       PRES   REMARKS
ALGONA *       LGT RAIN  41  41 100 N14       29.80R
CLARION *      CLOUDY    41  41 100 E10       29.74F
ESTHERVILLE    LGT RAIN  38  38 100 N13       29.81R FOG     WCI  30
FORT DODGE *   CLOUDY    41  37  87 CALM      29.75S
MASON CITY     PTCLDY    40  38  93 E7        29.76F
FOREST CITY *    N/A     39  37  93 N5        29.77R
WEBSTER CITY * CLOUDY    46  43  87 SE6       29.73F
IOWA FALLS *   MOCLDY    50  43  78 CALM      29.77R
$$

IAZ007>011-017>019-026>030-037>042-050>054-066-241200-
   NORTHEAST IOWA

CITY           SKY/WX    TMP DP  RH WIND       PRES   REMARKS
CEDAR RAPIDS   CLOUDY    51  46  83 S12       29.79S
CHARLES CITY * CLOUDY    39  39 100 E8        29.78S WCI  34
CLINTON *      CLEAR     48  44  86 S8        29.86R
DECORAH *      CLOUDY    41  37  87 SE5       29.80S
DUBUQUE        CLOUDY    45  42  89 S13       29.81S
MONTICELLO *   CLOUDY    48  43  81 S6        29.81S
OELWEIN *      CLOUDY    39  39 100 NE7       29.80S WCI  34
WATERLOO       CLOUDY    40  38  93 E6        29.78S
$$

IAZ064-065-067-068-078-241200-
   EAST CENTRAL IOWA

CITY           SKY/WX    TMP DP  RH WIND       PRES   REMARKS
DAVENPORT      CLEAR     53  45  74 S17       29.86R
IOWA CITY      CLOUDY    44  41  89 CALM      29.83F
MUSCATINE *    CLEAR     39  37  93 CALM      29.86R
QUAD CITIES    CLEAR     54  44  69 S9        29.85R
$$

IAZ062-063-075>077-085>089-095>099-241200-
   SOUTHEAST IOWA

CITY           SKY/WX    TMP DP  RH WIND       PRES   REMARKS
BURLINGTON     CLEAR     51  46  83 S12       29.86F
FAIRFIELD *    PTCLDY    57  48  72 S12       29.82S
FORT MADISON * CLEAR     54  46  76 S8        29.87S
KEOKUK *       CLEAR     55  48  76 S7        29.87S
OSKALOOSA *      N/A     51  46  83 S9        29.80R
CENTERVILLE *    N/A     59  48  67 S12       29.82S
OTTUMWA        PTCLDY    57  50  77 S13       29.80S
WASHINGTON *   PTCLDY    52  46  82 S12       29.84S
$$

ABBREVIATIONS USED IN REMARKS
   TC - TEMPERATURES IN CELSIUS
  WCI - WIND CHILL INDEX
   HX - HEAT INDEX
  VSB - VISIBILITY
$$




USA.gov is the U.S. government's official web portal to all federal, state and local government web resources and services.